Location: Unspecified
(40.9833°N, 0.0000°E)
Time: 20:59:10
(UTC+00:00)

O/OREOS (USA 219) - Visible Passes

Search period start: 16 July 2019 00:00
Search period end: 26 July 2019 00:00
Orbit: 621 x 646 km, 72.0° (Epoch: 22 May)

Date Brightness Start Highest point End Pass type
(mag) Time Alt. Az. Time Alt. Az. Time Alt. Az.
17 Jul ? 03:38:08 10° ESE 03:40:05 13° E 03:42:02 10° ENE visible
18 Jul ? 03:57:53 10° SSE 04:01:48 28° ESE 04:05:42 10° NE visible
20 Jul ? 03:04:26 10° SE 03:06:51 14° E 03:09:14 10° ENE visible
21 Jul ? 03:24:32 10° SSE 03:28:35 31° ESE 03:32:37 10° NE visible
22 Jul ? 03:45:55 10° SSW 03:50:29 73° ESE 03:55:03 10° NNE visible
23 Jul ? 02:30:51 10° SE 02:33:36 16° E 02:36:21 10° ENE visible
23 Jul ? 04:08:07 10° SW 04:12:34 49° WNW 04:17:00 10° NNE visible
24 Jul ? 02:52:17 16° SSE 02:55:21 35° ESE 02:59:31 10° NE visible
25 Jul ? 03:14:21 22° SSW 03:17:17 82° ESE 03:21:52 10° NNE visible
